PDT,Max TemperatureF,Mean TemperatureF,Min TemperatureF,Max Dew PointF,MeanDew PointF,Min DewpointF,Max Humidity, Mean Humidity, Min Humidity, Max Sea Level PressureIn, Mean Sea Level PressureIn, Min Sea Level PressureIn, Max VisibilityMiles, Mean VisibilityMiles, Min VisibilityMiles, Max Wind SpeedMPH, Mean Wind SpeedMPH, Max Gust SpeedMPH,PrecipitationIn, CloudCover, Events, WindDirDegrees
2012-9-1,73,60,48,50,49,46,100,79,41,30.14,30.09,30.01,10,10,7,14,7,24,0.00,3,,238
2012-9-2,73,62,50,53,50,48,100,84,44,30.20,30.16,30.12,10,9,2,8,4,,0.00,5,,277
2012-9-3,77,62,46,54,51,46,100,85,40,30.19,30.15,30.10,10,7,0,8,2,,0.00,5,Fog,244
2012-9-4,80,62,45,53,51,45,100,73,38,30.20,30.15,30.09,10,9,1,8,3,,0.00,0,,224
2012-9-5,84,62,43,55,50,42,97,68,35,30.09,30.00,29.91,10,10,10,7,1,,0.00,0,,148
2012-9-6,87,66,46,54,50,47,100,73,26,30.03,29.98,29.95,10,7,0,9,2,,0.00,1,Fog,345
2012-9-7,91,68,45,51,44,34,93,54,13,30.11,30.05,30.00,10,10,10,8,1,,0.00,0,,70
2012-9-8,70,58,48,56,53,46,100,83,61,30.01,29.98,29.94,10,9,2,23,8,29,0.00,4,,236
2012-9-9,61,58,55,56,53,50,96,84,77,30.01,29.99,29.95,10,9,3,14,9,18,0.03,8,Rain,215
2012-9-10,66,57,48,55,47,42,100,75,43,30.21,30.08,29.95,10,9,2,18,12,30,0.02,2,Rain,244
2012-9-11,70,52,36,45,39,34,97,66,33,30.31,30.27,30.22,10,10,10,8,2,,0.00,1,,14
2012-9-12,77,54,33,45,39,31,96,62,22,30.33,30.27,30.21,10,10,9,12,2,18,0.00,0,,29
2012-9-13,87,61,35,47,40,32,96,57,15,30.21,30.12,30.02,10,10,9,8,1,,0.00,1,,357
2012-9-14,84,62,41,52,45,39,93,60,24,30.08,30.04,29.99,10,10,10,9,1,,0.00,0,,189
2012-9-15,73,62,50,54,51,47,100,85,42,30.17,30.12,30.07,10,6,0,10,7,,0.00,4,Fog,244
2012-9-16,78,60,44,52,48,45,100,82,40,30.21,30.17,30.10,10,6,0,6,3,,0.00,3,Fog,260
2012-9-17,84,62,39,51,46,37,100,67,29,30.11,30.06,29.98,10,9,1,8,2,,0.00,0,,26
2012-9-18,86,63,42,55,48,41,100,73,27,30.09,30.03,29.99,10,9,6,20,4,24,0.00,2,,234
2012-9-19,79,65,53,56,54,53,100,84,45,30.15,30.10,30.04,10,8,2,12,6,17,0.00,5,,221
2012-9-20,68,58,50,54,52,50,100,92,63,30.10,30.08,30.05,10,5,0,20,8,26,0.00,7,Fog,237
2012-9-21,62,58,55,55,53,51,97,85,75,30.13,30.11,30.10,10,10,6,13,7,,0.00,8,,229
2012-9-22,68,60,53,55,53,49,100,85,57,30.15,30.13,30.09,10,9,2,9,4,,0.02,8,Rain,266
2012-9-23,71,54,39,49,45,39,100,81,47,30.15,30.12,30.09,10,8,0,8,2,,0.00,2,Fog,151
2012-9-24,72,56,41,56,49,40,97,79,51,30.14,30.11,30.07,10,10,9,8,2,,0.00,2,,238
2012-9-25,66,58,48,55,50,47,97,83,56,30.14,30.11,30.09,10,10,10,13,7,,0.00,6,,241
2012-9-26,70,54,39,50,44,39,100,88,49,30.12,30.09,30.03,10,6,0,6,1,,0.00,2,Fog,145
2012-9-27,75,56,37,49,44,37,100,78,38,30.07,30.02,29.93,10,9,0,7,1,,0.00,2,Fog,116
2012-9-28,80,65,51,58,52,47,93,72,37,30.01,29.95,29.92,10,10,8,15,3,21,0.00,1,,230
2012-9-29,68,60,51,57,49,44,97,73,56,30.29,30.16,30.03,10,10,10,13,6,,0.00,8,,245
2012-9-30,72,55,39,47,43,37,97,70,35,30.39,30.35,30.30,10,10,10,6,1,,0.00,1,,123